Regional Weather Roundup
Issued by NWS Upton, NY

Home | Current Version | Previous Version | Text Only | Print | Product List | Glossary On
Versions: 1 2 3 4 5 6 7 8 9 10 11 12 13 14 15 16 17 18 19 20 21 22 23 24 25 26 27
000
ASUS41 KOKX 250704
RWROKX

REGIONAL WEATHER ROUNDUP
NATIONAL WEATHER SERVICE NEW YORK NY
300 AM EDT WED MAY 25 2016

NOTE: "FAIR" INDICATES FEW OR NO CLOUDS BELOW 12,000 FEET WITH NO
SIGNIFICANT WEATHER AND/OR OBSTRUCTIONS TO VISIBILITY.

NYZ071-072-176-178-NJZ106-104-250800-
NEW YORK CITY METRO AREA


CITY           SKY/WX    TMP DP  RH WIND       PRES   REMARKS
CENTRAL PARK   CLEAR     63  50  62 W3        30.03S
LAGUARDIA APRT PTCLDY    64  57  78 CALM      29.99S
KENNEDY INTL   PTCLDY    59  56  89 W5        30.01S
NEWARK/LIBERTY CLEAR     59  53  80 CALM      30.00S
BRNX BOT. GARD   N/A     63  52  67 W5        30.01R
TETERBORO      CLEAR     57  51  80 CALM      30.00R
$$

NYZ177-179-078>081-250800-
LONG ISLAND NEW YORK

CITY           SKY/WX    TMP DP  RH WIND       PRES   REMARKS
FARMINGDALE    CLEAR     58  56  93 CALM      30.01R
ISLIP          PTCLDY    57  56  96 CALM      30.00R FOG
SHIRLEY        PTCLDY    56  54  93 CALM      30.01R FOG
RIVERHEAD        N/A     52  52 100 CALM      30.00R
WESTHAMPTON    PTCLDY    45  45 100 CALM      30.02R
EAST HAMPTON   CLOUDY    49  48  99 CALM      29.99S FOG
MONTAUK POINT    N/A     57  57 100 W3        30.01S
$$

NYZ052-065-067-250800-
HUDSON VALLEY

CITY           SKY/WX    TMP DP  RH WIND       PRES   REMARKS
WHITE PLAINS   CLEAR     55  53  93 NW3       30.00R
NEWBURGH       CLEAR     55  54  94 CALM      30.02R
MONTGOMERY     FOG       47  46  97 SW3       30.01S VSB 1/2
POUGHKEEPSIE   CLEAR     52  50  93 CALM      30.00R
ALBANY         MOCLDY    55  54  96 S6        29.98R FOG
$$

NJZ001-105-106-008-010-013-015-019>022-104-250800-
NEW JERSEY

CITY           SKY/WX    TMP DP  RH WIND       PRES   REMARKS
NEWARK/LIBERTY CLEAR     59  53  80 CALM      30.00S
TETERBORO      CLEAR     57  51  80 CALM      30.00R
CALDWELL       CLEAR     54  52  93 CALM      30.02R
MORRISTOWN     CLEAR     48  46  93 CALM      30.02S
SOMERVILLE     CLEAR     50  49  96 CALM      30.01S
SUSSEX         CLEAR     48  46  93 CALM      30.03R
ANDOVER          N/A     51  50  96 S5        30.04R
TRENTON        CLEAR     58  53  84 CALM      30.02S
MILLVILLE      CLEAR     54  51  90 W6        30.03R
ATLANTIC CITY  CLEAR     57  54  89 SW5       30.02R
WRIGHTSTOWN    NOT AVBL
TOMS RIVER     CLEAR     48  45  87 CALM      30.02S
BELMAR         CLEAR     55  53  93 CALM      30.02R
$$

PAZ047>061-062-071-250800-
EASTERN PENNSYLVANIA

CITY           SKY/WX    TMP DP  RH WIND       PRES   REMARKS
PHILADELPHIA   CLEAR     62  53  72 CALM      30.04R
ALLENTOWN      CLEAR     55  51  86 CALM      30.04S
SCRANTON       CLEAR     52  43  71 E3        30.05R
$$

CTZ002-004>006-009-010-012-RIZ004-006-007-MAZ004-011-015-250800-
SOUTHERN NEW ENGLAND
 IN CT

CITY           SKY/WX    TMP DP  RH WIND       PRES   REMARKS
BRADLEY INTL   PTCLDY    55  53  93 CALM      29.97S
HARTFORD       PTCLDY    56  53  90 CALM      29.99R
DANBURY        PTCLDY    54  53  97 SW3       30.02S FOG
WTRBRY/OXFORD    N/A     54  50  87 CALM      30.02F VSB 1/4
BRIDGEPORT     FOG       57  55  93 CALM      30.00S VSB 1/4
MERIDEN        CLEAR     52  50  93 CALM      29.99S
NEW HAVEN      FOG       53  52  96 CALM      30.00R VSB 1/2
CHESTER        FAIR      54  54 100 CALM      30.00R
GROTON         FOG       56  56 100 CALM      29.99R VSB 1/4
WILLIMANTIC    FOG       54  52  93 CALM      29.99S VSB 1/4

 IN RI

CITY           SKY/WX    TMP DP  RH WIND       PRES   REMARKS
PROVIDENCE     CLOUDY    56  54  93 CALM      30.00R
BLOCK ISLAND   MOCLDY    55  54  96 SW5       30.00S
WESTERLY       MOCLDY    56  52  86 CALM      30.00R FOG

 IN MA

CITY           SKY/WX    TMP DP  RH WIND       PRES   REMARKS
BOSTON         CLOUDY    53  51  93 CALM      29.99R
WORCESTER      CLEAR     51  50  96 W6        29.98S
WESTFIELD      LGT RAIN  52  51  97 CALM      29.98R VSB 1/4
PROVINCETOWN   CLOUDY    51  51 100 NW8       29.98S
NANTUCKET      CLOUDY    55  53  93 W8        29.97R
$$

ANZ330-335-338-340-345-350-353-355-250800-
COASTAL MARINE OBSERVATIONS


STATION/POSITION TIME  SKY/WX   TEMP    WIND        PRES    VSBY  WAVE
                                AIR SEA DIR/SP/G                  HT/PER
                 (UTC)          (F)     (DEG/KT/KT) (MB)    (MI)  (FT/S)
NY HARB ENTRANCE 0550            59 58  250/  6/  8 1015.4          2/ 9
20S FIRE ISLAND  0550            57 55  250/  8/ 10 1015.2          3/ 8
GREAT SOUTH BAY  0600            62 64  240/  4/  4   N/A
23 SSW MONTAUK P 0650            55 55  260/  4/  6 1015.5          3/ 8
15 E BARNEGAT LI 0622               55                N/A           3/ 8
HUDSON CANYON    0550            57 53              1015.2          3/ 8
KINGS POINT      0600            58 57              1015.4
EXECUTION ROCKS  NOT AVBL
CENTRAL LI SOUND 0600            56      CALM  /  2   N/A           0
EASTERN LI SOUND 0600            54 52  310/  2/  2   N/A
ROBBINS REEF     0600            63     270/  5/  5 1015.3
$$


>>>>>>>>>>>>>>>>>>>>>>>>>>>> KEY <<<<<<<<<<<<<<<<<<<<<<<<<<<
>                                                          <
>     SKY/WX - SKY CONDITION/PRESENT WEATHER               <
>     TMP    - TEMPERATURE IN FAHRENHEIT                   <
>     DP     - DEWPOINT IN FAHRENHEIT                      <
>     RH     - RELATIVE HUMIDITY IN PERCENT                <
>     WIND   - DIRECTION AND SPEED IN MPH                  <
>     PRES   - MEAN SEA LEVEL PRESSURE IN INCHES OF HG     <
>     WCI    - WIND CHILL INDEX                            <
>     VSB    - VISIBILITY IN MILES                         <
>     HX     - HEAT INDEX                                  <
>     TC     - TEMPERATURE IN CELSIUS                      <
>     VRB    - VARIABLE WIND DIRECTION                     <
>                                                          <
>>>>>>>>>>>>>>>>>>>>>>>>>>>> KEY <<<<<<<<<<<<<<<<<<<<<<<<<<<






USA.gov is the U.S. government's official web portal to all federal, state and local government web resources and services.